Location: Sinnemahoning State Park
(41.4031°N, 78.0230°W)
Time: 19:15:26
(UTC-05:00)

Daily predictions for brighter satellites

Satellite Brightness Start Highest point End
(mag) Time Altitude Azimuth Time Altitude Azimuth Time Altitude Azimuth
Cosmos 1818 3.6 18:19:34 10° SSW 18:24:58 72° ESE 18:30:26 10° NE
Cosmos 407 Rocket 3.5 18:21:17 10° SSW 18:26:31 80° ESE 18:31:51 10° NNE
Cosmos 2360 Rocket 2.6 18:22:07 10° N 18:27:29 42° ENE 18:32:49 10° SE
Cosmos 2219 Rocket 3.9 18:25:54 10° NNE 18:28:32 13° NE 18:31:10 10° ENE
Cosmos 2219 4.5 18:25:22 10° SE 18:29:20 20° E 18:33:18 10° NE
Cosmos 676 Rocket 4.0 18:25:59 10° S 18:31:04 60° ESE 18:36:13 10° NNE
DNEPR-1 R/B 3.8 18:27:19 10° NW 18:31:33 71° WSW 18:35:48 10° SSE
Nadezhda 1 Rocket 4.2 18:32:14 10° N 18:38:18 75° W 18:44:20 10° S
Meteor 1-11 Rocket 4.2 18:33:27 10° SSE 18:38:48 40° E 18:44:15 10° NNE
Cosmos 1461 3.7 18:40:19 10° NW 18:44:14 53° WSW 18:48:15 10° SSE
DELTA 2 R/B (1) 4.0 18:39:40 10° W 18:45:12 60° SSW 18:50:43 10° ESE
Cosmos 1140 Rocket 3.6 18:41:16 10° S 18:46:11 49° ESE 18:51:09 10° NNE
Cosmos 1602 3.9 18:45:34 10° S 18:49:18 51° E 18:53:06 10° NNE
Resurs 01 Rocket 2.3 18:45:41 10° SE 18:49:37 33° ENE 18:53:33 10° N
Cosmos 1300 Rocket 3.7 18:46:33 10° S 18:50:49 51° E 18:55:09 10° NNE
Cosmos 2292 Rocket 4.4 18:48:40 10° S 18:53:48 88° E 19:00:49 10° N
Cosmos 614 Rocket 4.2 18:49:17 10° S 18:54:04 43° ESE 18:58:51 10° NNE
COSMO-SKYMED 1 4.0 18:51:22 10° N 18:55:28 42° WNW 18:59:32 10° SW
Abrixas rocket 3.9 18:53:28 10° S 18:55:55 19° SE 18:56:52 17° ESE
Cosmos 1833 4.2 18:50:23 10° SSW 18:56:04 78° ESE 19:01:45 10° NNE
ALOS 2.4 18:53:00 10° SSE 18:57:32 53° ENE 19:02:05 10° N
Cosmos 2181 Rocket 4.0 18:52:05 10° N 18:58:19 69° E 19:04:38 10° SSE
Spot 2 Rocket 3.8 18:57:09 10° SE 19:01:57 45° ENE 19:06:47 10° N
USA 229 DEB 4.4 18:55:32 10° NNW 19:02:07 38° NE 19:07:02 17° ESE
USA 229 4.4 18:55:39 10° NNW 19:02:12 38° NE 19:07:06 18° ESE
Cosmos 2333 Rocket 3.6 18:58:20 10° N 19:02:25 20° NE 19:04:11 17° ENE
SL-16 R/B 3.7 18:58:53 10° NW 19:04:08 40° WSW 19:09:22 10° S
Cosmos 2208 Rocket 4.5 18:59:28 10° N 19:04:40 42° ENE 19:09:46 10° SE
FREGAT/IRIS 2.9 19:02:08 10° S 19:05:12 72° WSW 19:08:17 10° NNW
Helios 1A 4.0 19:04:17 21° E 19:05:43 25° ENE 19:09:08 10° NNE
NOSS 8 (E) 4.5 19:02:58 10° SSW 19:06:22 62° ESE 19:09:17 15° NE
Cosmos 1340 2.8 19:02:58 10° NNW 19:06:45 76° W 19:10:32 10° S
Resurs 1-3 3.9 19:03:19 10° SE 19:07:27 42° ENE 19:11:35 10° N
Cosmos 1709 Rocket 4.2 19:07:00 10° SSW 19:13:13 76° W 19:19:24 10° N
Cosmos 1850 Rocket 4.1 19:08:08 10° S 19:13:17 56° ESE 19:18:31 10° NNE
Cosmos 2074 Rocket 4.2 19:07:25 10° SSE 19:13:20 47° E 19:19:19 10° NNE
Cosmos 2184 Rocket 4.2 19:10:17 10° SSE 19:16:17 48° E 19:22:16 10° NNE
Helios 1B rocket 3.2 19:14:34 10° NE 19:18:14 30° E 19:21:53 10° SSE
Envisat 4.2 19:18:30 22° ENE 19:18:30 22° ENE 19:22:20 10° NNE
FengYun 1-2 T 4.1 19:14:08 10° SSE 19:19:36 83° ENE 19:25:08 10° NNW
Cosmos 2322 Rocket 4.3 19:15:43 10° NW 19:20:25 28° WSW 19:25:06 10° SSW
NOSS 8 (H) 4.4 19:17:08 10° SSW 19:20:28 62° ESE 19:21:51 32° NE
Okean 2 4.2 19:18:27 10° NNE 19:22:00 31° ENE 19:22:00 31° ENE
HJ-1C 3.5 19:18:58 10° S 19:22:20 78° W 19:25:43 10° NNW
SJ-6B 3.8 19:19:49 10° S 19:23:43 49° W 19:27:33 10° NNW
Tiangong 2 3.6 19:22:38 10° WSW 19:24:41 17° SSW 19:26:32 11° S
Okean 1 Rocket 3.1 19:21:07 10° S 19:25:37 86° W 19:30:07 10° N
Meteor 1-5 Rocket 4.4 19:20:41 10° S 19:26:27 53° E 19:32:10 10° NNE
Genesis I 3.1 19:22:51 10° NNW 19:26:47 65° NE 19:28:05 39° ESE
FENGYUN 3A 3.7 19:22:02 10° SSE 19:27:27 83° WSW 19:32:54 10° NNW
Meteor 1-19 Rocket 4.5 19:22:57 10° NNW 19:28:38 74° W 19:34:22 10° S
SAR-Lupe-4 3.6 19:30:26 49° ESE 19:30:53 54° ENE 19:34:25 10° N
Nadezhda 3 Rocket 4.5 19:30:12 10° N 19:35:47 34° ENE 19:36:37 33° E
Gbstr 26 Del rocket 2.7 19:32:01 10° WSW 19:35:48 74° NW 19:36:52 44° NE
Cosmos 2322 4.2 19:31:21 10° NNW 19:37:01 63° WSW 19:42:37 10° S
Cosmos 1238 Rocket 4.2 19:35:07 10° NNW 19:37:46 29° W 19:40:23 10° SSW
Cosmos 2285 Rocket 4.0 19:38:04 10° NNW 19:44:28 63° ENE 19:47:50 29° SE
GEOS 3 Rocket 3.7 19:39:42 11° NNE 19:44:42 78° NW 19:49:59 10° SW
CZ-2D R/B 3.1 19:43:32 38° SSE 19:44:56 89° ENE 19:48:47 10° NNW
Cosmos 2154 Rocket 4.3 19:39:22 10° SSE 19:45:17 43° E 19:51:12 10° NNE
Cosmos 1025 Rocket 2.9 19:41:05 10° N 19:45:30 87° E 19:48:41 18° S
GPS 2-04 Rocket1 4.0 19:42:45 10° SW 19:46:29 30° SSE 19:46:29 30° SSE
Cosmos 405 Rocket 4.1 19:42:48 10° N 19:45:01 27° NNE 19:45:01 27° NNE
H-2A R/B 3.3 19:46:37 10° S 19:50:15 56° W 19:53:57 10° NNW
Meteor 2-13 Rocket 4.4 19:45:13 10° S 19:51:08 60° E 19:57:07 10° NNE
Cosmos 1536 3.7 19:47:26 10° SSW 19:51:18 49° W 19:55:12 10° N
Okean 1-7 Rocket 4.1 19:47:12 10° NNW 19:51:41 60° W 19:56:05 10° S
Meteor 1-23 Rocket 4.3 19:46:34 10° NNW 19:52:24 80° W 19:58:07 10° S
COSMOS 2428 2.6 19:46:42 10° NNW 19:52:26 89° WSW 19:55:38 27° SSE
Cosmos 2237 4.4 19:46:57 10° NNW 19:52:40 70° WSW 19:57:28 15° SSE
Cosmos 2333 4.1 19:48:03 10° NNW 19:53:49 83° ENE 19:56:21 35° SSE
Meteor 2-4 Rocket 4.1 19:49:15 10° NNW 19:54:42 60° W 20:00:00 10° S
Cosmos 2237 Rocket 3.0 19:51:18 10° N 19:55:53 34° NE 19:55:53 34° NE
NOSS 0 Rocket 3.9 20:02:01 10° NNW 20:08:06 59° ENE 20:08:24 59° ENE
Cosmos 2360 Rocket 4.1 20:06:30 10° NW 20:11:15 28° WSW 20:15:58 10° SSW
Cosmos 2219 3.7 20:07:17 10° SW 20:12:57 60° WNW 20:18:39 10° NNE
Cosmos 2219 Rocket 2.0 20:07:50 10° NNW 20:13:27 77° ENE 20:13:35 76° E
Resurs 01 Rocket 3.9 20:22:38 10° SSW 20:26:07 23° W 20:29:37 10° NW
SL-16 R/B 3.9 20:25:01 10° N 20:27:19 21° NNE 20:27:19 21° NNE
BREEZE-M DEB (TANK) 4.2 20:30:01 10° WNW 20:34:01 74° SSW 20:35:01 64° SSE
Cosmos 2333 Rocket 2.7 20:41:32 10° NNW 20:46:14 58° NW 20:46:14 58° NW
USA 229 DEB 4.3 20:46:25 10° NW 20:53:19 53° WSW 20:54:33 48° SSW
USA 229 4.3 20:46:31 10° NW 20:53:25 53° WSW 20:54:36 49° SSW
Envisat 4.4 20:58:41 35° NW 20:58:41 35° NW 21:02:05 10° NNW
NOSS 3-1 (A) 4.2 20:58:41 10° NNW 21:04:58 61° N 21:04:58 61° N
ATLAS 2AS CENTAUR R/B 4.2 21:04:50 10° NNW 21:10:18 29° NNE 21:10:18 29° NNE
NOSS 3-1 (C) 4.4 21:18:13 10° NW 21:24:23 60° WNW 21:24:23 60° WNW
Cosmos 2237 Rocket 4.3 21:35:24 10° NW 21:37:44 22° WNW 21:37:44 22° WNW
